[[{"header":{"parameterUnit":"m.s-1","parameterCategory":1,"la1":30.2991,"la2":30.254,"lo1":-89.0895,"lo2":-89.0444,"dy":0.0017,"dx":0.0017,"nx":28,"ny":28,"refTime":"2023-10-31T03:00:00:Z","depth":0,"parameterNumber":2,"parameterNumberName":"U-component_of_WINDS"},"data":[0,0,0,0,0,0,0,0,0,0,0,0,0,0,0,0,0,0,0,0,0,0,0,0,0,0,0,0,0,0,0,0,0,0,0,0,0,0,0,0,0,0,0,0,0,0,0,0,0,0,0,0,0,0,0,0,0,0,-0.5228,-0.5228,0,-0.5262,-0.5263,-0.5263,-0.5251,-0.525,-0.5249,-0.5248,-0.5284,-0.5285,-0.5287,0,0,0,0,0,0,0,0,0,0,0,0,0,-0.5151,-0.5152,-0.5228,-0.5228,-0.5229,-0.5262,-0.5263,-0.5263,-0.5251,-0.525,-0.5249,-0.5248,-0.5283,-0.5285,-0.5287,0,0,0,0,0,0,0,0,0,0,0,0,0,-0.5184,-0.5153,-0.5228,-0.5227,-0.5227,-0.5262,-0.5263,-0.5263,-0.5251,-0.525,-0.5249,-0.5248,-0.5283,-0.5285,-0.5287,-0.5326,0,0,-0.5295,-0.5296,0,0,0,0,0,0,0,0,-0.5183,-0.5187,-0.5226,-0.5227,-0.5227,-0.5251,-0.5248,-0.5284,-0.5251,-0.5242,-0.5248,-0.5247,-0.5274,-0.5277,-0.5286,-0.5328,-0.5329,-0.5295,-0.5297,-0.5298,-0.5299,0,0,0,0,0,0,0,-0.518,-0.5186,-0.5241,-0.5227,-0.5227,-0.5224,-0.5228,-0.5255,-0.5264,-0.5243,-0.5242,-0.5246,-0.5274,-0.5284,-0.5287,-0.533,-0.5295,-0.5297,-0.5299,-0.53,-0.5403,-0.5405,0,0,0,0,0,0,-0.5178,-0.5184,-0.524,-0.5242,-0.5201,-0.5226,-0.523,-0.5244,-0.5264,-0.5265,-0.5247,-0.5245,-0.528,-0.5284,-0.5288,-0.5334,-0.5298,-0.53,-0.5302,-0.5402,-0.5404,-0.5405,0,0,0,0,0,0,-0.5176,-0.5183,-0.5239,-0.5213,-0.522,-0.5229,-0.5245,-0.5246,-0.5256,-0.5267,-0.5268,-0.5255,-0.5279,-0.5284,-0.5316,-0.5335,-0.5301,-0.5304,-0.5401,-0.5403,-0.5404,-0.5427,0,0,0,0,0,0,-0.5174,-0.5182,-0.5198,-0.5213,-0.5221,-0.5267,-0.5246,-0.5247,-0.526,-0.5258,-0.5275,-0.5277,-0.5279,-0.5313,-0.5319,-0.5338,-0.5305,-0.5399,-0.5402,-0.5404,-0.5424,-0.5429,-0.5433,0,0,0,0,0,-0.5171,-0.5203,-0.5198,-0.5205,-0.524,-0.5268,-0.5273,-0.5274,-0.5261,-0.5276,-0.5283,-0.5276,-0.5332,-0.5316,-0.5323,-0.5343,-0.5398,-0.5401,-0.5404,-0.5422,-0.5428,-0.5433,0,0,0,0,0,0,-0.5189,-0.5205,-0.52,-0.5238,-0.5252,-0.5266,-0.5286,-0.528,-0.5299,-0.5296,-0.5297,-0.5301,-0.5334,-0.5341,-0.5324,-0.5381,-0.5363,-0.5367,-0.5375,-0.538,-0.5385,-0.5383,-0.5308,0,0,0,0,0,-0.5197,-0.5219,-0.5231,-0.5263,-0.527,-0.5277,-0.5289,-0.5288,-0.5303,-0.5309,-0.5319,-0.5333,-0.5353,-0.5367,-0.5387,-0.5425,-0.5428,-0.5442,-0.5446,-0.545,-0.5454,-0.5474,-0.548,-0.5414,-0.5414,-0.5414,0,0,-0.5215,-0.5226,-0.524,-0.5267,-0.5278,-0.53,-0.5282,-0.5306,-0.5323,-0.5313,-0.5344,-0.5351,-0.5367,-0.5402,-0.5418,-0.5409,-0.5472,-0.5453,-0.5456,-0.5458,-0.5477,-0.5484,-0.5489,-0.5416,-0.5416,-0.5416,0,0,-0.5258,-0.5269,-0.5296,-0.5307,-0.5324,-0.5327,-0.5334,-0.5349,-0.5353,-0.5384,-0.5377,-0.5396,-0.5431,-0.5443,-0.5453,-0.5499,-0.5493,-0.5505,-0.5529,-0.5548,-0.5554,-0.5558,-0.5575,-0.5581,-0.5509,-0.5509,-0.5509,0,-0.5278,-0.5312,-0.5311,-0.5336,-0.5348,-0.5339,-0.5367,-0.5377,-0.5399,-0.5408,-0.5398,-0.5441,-0.5451,-0.5489,-0.55,-0.5508,-0.5516,-0.5504,-0.5553,-0.5557,-0.5562,-0.5577,-0.5584,-0.551,-0.551,-0.551,-0.551,0,-0.5335,-0.5358,-0.5378,-0.5399,-0.5413,-0.5439,-0.5443,-0.5457,-0.5454,-0.5459,-0.549,-0.5501,-0.5523,-0.5531,-0.553,-0.5568,-0.5562,-0.5552,-0.5535,-0.5569,-0.5584,-0.559,-0.5512,-0.5512,-0.5511,-0.5511,0,0,-0.5393,-0.5412,-0.5419,-0.5429,-0.5445,-0.5463,-0.5488,-0.5509,-0.5521,-0.5535,-0.5556,-0.5586,-0.5576,-0.5588,-0.5587,-0.5604,-0.564,-0.5592,-0.5593,-0.5601,-0.5683,-0.5691,-0.5698,-0.5635,-0.5636,-0.5637,-0.5682,0,-0.5438,-0.5482,-0.5482,-0.5523,-0.5544,-0.5535,-0.5557,-0.5569,-0.5573,-0.5591,-0.5596,-0.5617,-0.5603,-0.561,-0.5626,-0.5632,-0.5656,-0.5629,-0.5655,-0.5656,-0.5652,-0.5705,-0.5714,-0.5756,-0.5687,-0.5688,-0.5689,0,-0.5497,-0.5513,-0.5557,-0.5569,-0.5578,-0.5598,-0.5616,-0.5633,-0.5646,-0.5648,-0.5661,-0.5657,-0.5681,-0.5662,-0.5696,-0.5677,-0.5688,-0.5692,-0.5693,-0.5697,-0.5675,-0.5711,-0.5769,-0.5775,-0.5698,-0.5697,-0.5697,0,-0.5535,-0.5568,-0.5598,-0.5606,-0.5621,-0.5635,-0.5642,-0.5654,-0.5666,-0.5682,-0.5689,-0.5708,-0.5718,-0.5732,-0.5733,-0.5718,-0.5767,-0.5748,-0.5769,-0.5769,-0.5781,-0.5781,-0.5842,-0.5786,-0.5786,-0.5786,-0.5786,0,-0.5586,-0.5613,-0.5615,-0.5634,-0.5663,-0.5661,-0.5691,-0.5696,-0.5706,-0.5726,-0.5718,-0.5736,-0.5736,-0.5754,-0.5754,-0.5782,-0.5787,-0.5789,-0.5789,-0.579,-0.579,-0.5798,-0.5795,-0.5788,-0.5787,-0.5787,-0.5787,0,-0.5635,-0.5637,-0.5669,-0.568,-0.5684,-0.5705,-0.5715,-0.5732,-0.5735,-0.5759,-0.5764,-0.5769,-0.579,-0.5791,-0.5815,-0.5815,-0.585,-0.5846,-0.5845,-0.5845,-0.5867,-0.5865,-0.5937,-0.5946,-0.5883,-0.5884,-0.5884,0,-0.5668,-0.5688,-0.5701,-0.5714,-0.5721,-0.5741,-0.5753,-0.5752,-0.5764,-0.578,-0.5795,-0.5815,-0.5831,-0.5864,-0.587,-0.5888,-0.5885,-0.5909,-0.5888,-0.5888,-0.5886,-0.5885,-0.5887,-0.5913,-0.5914,-0.5914,-0.5915,0,-0.5727,-0.5726,-0.5744,-0.5762,-0.5776,-0.579,-0.5803,-0.5813,-0.5813,-0.5828,-0.5849,-0.5861,-0.5885,-0.5904,-0.5922,-0.5928,-0.5922,-0.5921,-0.5927,-0.5929,-0.5928,-0.5929,-0.5857,-0.592,-0.5919,-0.5919,-0.5919,-0.5919,-0.5769,-0.5786,-0.5798,-0.5818,-0.5827,-0.5839,-0.5855,-0.586,-0.5877,-0.5897,-0.5894,-0.5917,-0.5929,-0.5951,-0.5959,-0.5977,-0.5969,-0.5977,-0.598,-0.5982,-0.5984,-0.5924,-0.598,-0.5979,-0.5979,-0.5979,-0.5979,0,-0.5828,-0.5834,-0.5852,-0.587,-0.5885,-0.5877,-0.589,-0.5903,-0.5924,-0.5935,-0.595,-0.5974,-0.5992,-0.5998,-0.6016,-0.6029,-0.6026,-0.6034,-0.6033,-0.6035,-0.5991,-0.5984,-0.6036,-0.6036,-0.6036,-0.6036,-0.6036,-0.6036,-0.586,-0.5889,-0.589,-0.5922,-0.5929,-0.5951,-0.596,-0.597,-0.5979,-0.6006,-0.6021,-0.6024,-0.6033,-0.6051,-0.6068,-0.6069,-0.6076,-0.6085,-0.6085,-0.6044,-0.6038,-0.6033,-0.6026,-0.6086,-0.6087,-0.6128,-0.6128,-0.6129]},{"header":{"parameterUnit":"m.s-1","parameterCategory":1,"la1":30.2991,"la2":30.254,"lo1":-89.0895,"lo2":-89.0444,"dy":0.0017,"dx":0.0017,"nx":28,"ny":28,"refTime":"2023-10-31T03:00:00:Z","depth":0,"parameterNumber":3,"parameterNumberName":"V-component_of_WINDS"},"data":[0,0,0,0,0,0,0,0,0,0,0,0,0,0,0,0,0,0,0,0,0,0,0,0,0,0,0,0,0,0,0,0,0,0,0,0,0,0,0,0,0,0,0,0,0,0,0,0,0,0,0,0,0,0,0,0,0,0,-8.7858,-8.786,0,-8.7994,-8.7995,-8.7997,-8.7913,-8.7909,-8.7905,-8.7902,-8.8033,-8.804,-8.8047,0,0,0,0,0,0,0,0,0,0,0,0,0,-8.752,-8.7526,-8.7858,-8.786,-8.7862,-8.7994,-8.7995,-8.7997,-8.7914,-8.7909,-8.7904,-8.79,-8.803,-8.8039,-8.8047,0,0,0,0,0,0,0,0,0,0,0,0,0,-8.7662,-8.7529,-8.7858,-8.7836,-8.7835,-8.7993,-8.7996,-8.7998,-8.7915,-8.7909,-8.7903,-8.7898,-8.8028,-8.8038,-8.8049,-8.8233,0,0,-8.8081,-8.8086,0,0,0,0,0,0,0,0,-8.7654,-8.7674,-8.7838,-8.7838,-8.7837,-8.7931,-8.7924,-8.8076,-8.7916,-8.7885,-8.7901,-8.7895,-8.8003,-8.8015,-8.8054,-8.8239,-8.8245,-8.8082,-8.8089,-8.8093,-8.8097,0,0,0,0,0,0,0,-8.7644,-8.7668,-8.7911,-8.784,-8.784,-8.7817,-8.7831,-8.7953,-8.7975,-8.7887,-8.7881,-8.7899,-8.8002,-8.8043,-8.8056,-8.8247,-8.8082,-8.8092,-8.8098,-8.8102,-8.859,-8.8596,0,0,0,0,0,0,-8.7637,-8.766,-8.7907,-8.7916,-8.773,-8.7828,-8.7843,-8.7907,-8.7973,-8.7978,-8.7904,-8.7894,-8.8028,-8.8044,-8.806,-8.8281,-8.8093,-8.8103,-8.811,-8.8584,-8.8592,-8.8599,0,0,0,0,0,0,-8.763,-8.766,-8.7902,-8.7787,-8.7816,-8.784,-8.7912,-8.7912,-8.7954,-8.7986,-8.7989,-8.7943,-8.8024,-8.8045,-8.8191,-8.8284,-8.8108,-8.8118,-8.8576,-8.8586,-8.8595,-8.8723,0,0,0,0,0,0,-8.7621,-8.7658,-8.773,-8.7789,-8.7822,-8.8033,-8.7918,-8.7919,-8.7974,-8.7963,-8.8024,-8.8028,-8.8021,-8.8176,-8.8202,-8.8296,-8.8126,-8.8568,-8.858,-8.8592,-8.8711,-8.8736,-8.8758,0,0,0,0,0,-8.7609,-8.7759,-8.7734,-8.7764,-8.7913,-8.8039,-8.8057,-8.8049,-8.7982,-8.8053,-8.8074,-8.8026,-8.827,-8.8191,-8.822,-8.8319,-8.8562,-8.8577,-8.8591,-8.87,-8.8731,-8.8758,0,0,0,0,0,0,-8.7707,-8.7766,-8.7739,-8.7913,-8.7972,-8.8024,-8.8114,-8.8082,-8.8158,-8.8145,-8.8128,-8.8142,-8.8295,-8.8321,-8.8233,-8.8501,-8.8405,-8.8426,-8.8478,-8.8508,-8.8531,-8.8521,-8.8135,0,0,0,0,0,-8.775,-8.7849,-8.7894,-8.8043,-8.8074,-8.809,-8.8144,-8.8133,-8.8191,-8.8215,-8.8246,-8.8303,-8.8392,-8.8451,-8.8535,-8.8714,-8.8726,-8.8796,-8.882,-8.8839,-8.8857,-8.8953,-8.8985,-8.8647,-8.8647,-8.8646,0,0,-8.7837,-8.7882,-8.7945,-8.8064,-8.8108,-8.821,-8.8111,-8.8222,-8.8296,-8.8231,-8.8372,-8.8397,-8.8459,-8.8622,-8.8696,-8.8649,-8.8953,-8.8858,-8.8873,-8.8881,-8.8972,-8.9004,-8.9032,-8.8657,-8.8655,-8.8653,0,0,-8.8049,-8.8093,-8.8222,-8.8269,-8.8339,-8.8348,-8.8379,-8.8437,-8.8452,-8.8594,-8.8547,-8.8633,-8.8788,-8.8835,-8.8878,-8.9109,-8.9067,-8.9136,-8.9259,-8.9353,-8.938,-8.9403,-8.9485,-8.9515,-8.9155,-8.9155,-8.9155,0,-8.8148,-8.8302,-8.8292,-8.8408,-8.8461,-8.841,-8.8539,-8.8584,-8.8676,-8.8713,-8.866,-8.8853,-8.8891,-8.9065,-8.9122,-8.9159,-8.9193,-8.9129,-8.9377,-8.9401,-8.9423,-8.95,-8.9531,-8.9163,-8.9162,-8.9161,-8.916,0,-8.842,-8.8527,-8.8623,-8.8717,-8.878,-8.8902,-8.891,-8.8975,-8.8958,-8.8973,-8.9117,-8.9161,-8.9253,-8.9294,-8.9277,-8.9465,-8.9434,-8.938,-8.9283,-8.9463,-8.9536,-8.9566,-8.9174,-8.9171,-8.9169,-8.9167,0,0,-8.8696,-8.8785,-8.882,-8.8862,-8.8935,-8.9016,-8.9135,-8.9229,-8.9285,-8.935,-8.9448,-8.9581,-8.9531,-8.9581,-8.9569,-8.9652,-8.9832,-8.9587,-8.9588,-8.9631,-9.0041,-9.0082,-9.0117,-8.9805,-8.981,-8.9815,-9.0036,0,-8.8912,-8.9124,-8.9119,-8.9314,-8.9412,-8.9365,-8.9469,-8.9523,-8.954,-8.9624,-8.964,-8.9735,-8.9663,-8.9693,-8.9773,-8.9793,-8.9914,-8.9777,-8.9894,-8.9899,-8.988,-9.0155,-9.0198,-9.0404,-9.0064,-9.0069,-9.0073,0,-8.9192,-8.9271,-8.9477,-8.9536,-8.9577,-8.9671,-8.9756,-8.9837,-8.9897,-8.9903,-8.9961,-8.9936,-9.0054,-8.9955,-9.0117,-9.0025,-9.0072,-9.0089,-9.0097,-9.0107,-8.9996,-9.0172,-9.047,-9.0501,-9.0117,-9.0114,-9.0111,0,-8.9373,-8.9529,-8.9673,-8.971,-8.9783,-8.985,-8.9883,-8.9938,-8.9995,-9.0068,-9.0104,-9.019,-9.0236,-9.0302,-9.03,-9.0228,-9.0464,-9.0365,-9.0471,-9.0471,-9.0522,-9.0519,-9.0832,-9.0554,-9.0553,-9.0553,-9.0552,0,-8.9615,-8.9743,-8.9756,-8.9844,-8.9985,-8.9978,-9.0117,-9.0143,-9.0193,-9.0283,-9.0246,-9.0332,-9.0324,-9.041,-9.0409,-9.0543,-9.0564,-9.0571,-9.0569,-9.0575,-9.0574,-9.0605,-9.059,-9.0561,-9.0559,-9.0558,-9.0556,0,-8.9841,-8.9855,-9.0008,-9.0066,-9.0083,-9.0185,-9.0232,-9.0315,-9.0329,-9.0444,-9.0471,-9.0492,-9.0591,-9.0596,-9.0709,-9.0708,-9.0871,-9.0853,-9.0852,-9.0849,-9.0955,-9.0945,-9.1298,-9.1344,-9.1037,-9.1039,-9.1042,0,-8.9994,-9.0092,-9.0161,-9.022,-9.0258,-9.0354,-9.0413,-9.0409,-9.047,-9.0548,-9.0621,-9.0717,-9.0794,-9.0953,-9.0977,-9.1063,-9.1047,-9.1165,-9.1059,-9.1062,-9.1048,-9.1043,-9.1052,-9.1185,-9.1189,-9.1191,-9.1194,0,-9.0264,-9.0267,-9.0354,-9.0444,-9.0516,-9.0586,-9.0651,-9.0701,-9.0704,-9.0775,-9.0878,-9.0938,-9.1055,-9.115,-9.1234,-9.1264,-9.123,-9.1227,-9.1256,-9.1262,-9.1258,-9.1261,-9.0908,-9.1219,-9.1216,-9.1214,-9.1213,-9.1212,-9.0458,-9.0543,-9.0606,-9.0704,-9.0753,-9.0815,-9.0896,-9.0921,-9.1008,-9.1105,-9.1096,-9.121,-9.1267,-9.1377,-9.1415,-9.1502,-9.1461,-9.1503,-9.1514,-9.1524,-9.1536,-9.1245,-9.1517,-9.1516,-9.1515,-9.1515,-9.1514,0,-9.0726,-9.0765,-9.0856,-9.0949,-9.1026,-9.099,-9.106,-9.1126,-9.1228,-9.1285,-9.1363,-9.148,-9.1573,-9.1605,-9.1694,-9.1757,-9.1743,-9.1781,-9.1776,-9.1783,-9.1567,-9.1533,-9.1791,-9.179,-9.179,-9.179,-9.179,-9.179,-9.0875,-9.1017,-9.1027,-9.1193,-9.1229,-9.1343,-9.1386,-9.1442,-9.1488,-9.1622,-9.17,-9.1722,-9.1769,-9.1861,-9.1944,-9.1951,-9.1985,-9.2029,-9.2029,-9.1826,-9.1798,-9.1772,-9.174,-9.2037,-9.2037,-9.2238,-9.224,-9.2241]}]]